Wind_Speed
22 21 21 21 21 21 21 20 20 20 20 20 20 20 20 20 20 19 19 19 19 18 18 18 17 17 17 17 16 16 15 15 15 15 15 16 16 16 16 17 17 17 17 18 18 18 18 17 17 17 18 18 18 18 18 18 17 17 16 17 17 17 16 16 15 15 15 15 13 13 14 15 14 14 15 16 16 16 15 16 15 15 15 14 13 13 13 14
25 24 24 24 24 23 23 23 23 23 23 23 23 23 22 22 22 22 22 22 21 21 21 21 21 20 20 20 20 20 19 19 19 19 18 18 19 19 19 19 19 19 20 20 20 20 20 20 20 20 20 20 20 20 21 20 20 20 19 19 20 19 19 19 18 19 18 18 17 15 15 16 16 15 16 17 17 17 15 16 17 17 16 14 14 13 13 14
28 27 27 27 27 26 26 26 26 26 26 25 25 25 25 25 25 25 25 24 24 24 24 24 24 24 23 23 23 23 23 22 23 23 23 22 23 22 22 22 22 22 22 23 23 22 22 22 22 22 22 22 22 22 23 23 23 22 22 22 23 22 21 22 21 21 22 22 21 19 17 17 18 17 17 18 18 19 17 16 17 18 17 15 14 15 14 15
30 30 30 30 30 29 29 29 29 29 28 28 28 28 28 28 28 28 27 27 27 27 27 27 26 27 26 26 26 26 26 26 26 27 26 26 26 26 26 26 26 26 26 26 26 25 25 25 25 25 25 25 25 25 25 26 25 25 25 25 26 25 23 24 25 24 24 24 23 23 22 20 21 20 20 19 19 21 19 17 17 18 19 16 16 16 16 16
32 32 32 31 31 31 31 31 31 31 31 31 30 30 30 30 30 30 30 30 30 30 30 29 29 29 29 29 29 29 29 28 29 29 29 29 29 29 29 29 29 29 29 29 29 29 29 29 29 29 28 29 28 28 28 28 28 27 27 28 28 28 27 27 28 27 27 27 26 26 25 24 24 23 22 22 21 23 22 19 18 18 20 18 18 18 18 18
32 32 32 32 32 32 32 32 32 32 32 32 32 32 32 32 32 32 32 32 32 32 32 32 32 32 32 31 31 31 30 30 32 32 31 31 31 31 31 31 31 31 31 31 31 31 32 32 32 32 32 32 32 31 31 31 31 29 29 31 31 31 30 30 31 30 30 30 30 30 28 27 27 26 25 24 23 24 24 22 21 20 20 19 19 20 20 20
31 31 31 31 31 31 31 31 31 31 32 32 32 32 32 32 33 33 33 33 33 34 34 34 34 34 34 34 33 32 31 33 35 34 33 33 33 33 32 32 33 33 33 32 33 33 33 34 34 34 34 34 35 34 34 33 33 32 31 32 32 32 32 33 33 32 32 32 33 34 31 30 30 29 26 24 25 26 25 24 24 23 22 21 20 20 21 21
31 31 31 31 31 31 31 31 31 31 31 31 31 31 32 32 32 32 33 33 33 33 33 34 34 35 35 35 34 33 32 34 36 35 34 34 34 34 34 34 34 34 34 34 34 34 34 35 35 36 35 35 36 35 36 36 35 34 34 34 33 33 34 34 34 34 34 34 35 36 34 32 33 33 28 25 28 28 28 27 27 27 25 25 24 23 23 24
31 31 31 31 31 31 31 31 31 31 30 30 30 31 31 31 31 31 31 31 32 32 32 33 33 34 34 34 33 31 32 35 36 36 35 35 35 35 34 34 35 34 35 35 35 35 35 36 37 37 36 36 36 36 37 37 36 36 37 36 34 34 35 34 34 35 36 36 36 36 36 34 36 36 29 25 31 32 30 30 29 29 28 28 28 28 28 27
32 32 32 32 32 32 32 31 31 31 31 31 31 32 32 32 32 32 32 32 32 32 32 33 33 33 33 33 31 29 32 34 34 34 35 35 35 34 35 35 35 35 35 35 36 36 37 37 38 38 38 37 37 36 38 38 37 38 38 37 36 36 35 35 35 36 38 38 36 37 37 36 37 38 31 27 33 34 32 32 32 32 31 31 30 30 31 30
33 33 33 33 33 33 33 33 33 34 34 34 34 34 34 34 34 34 34 34 34 34 35 35 35 35 35 34 31 29 32 34 33 34 34 34 34 33 34 34 34 35 35 35 35 36 37 38 38 39 39 38 37 37 38 38 38 39 40 39 36 38 37 35 37 38 39 39 38 40 40 38 37 37 33 31 35 36 34 32 33 34 34 33 32 32 33 32
35 36 35 35 35 35 35 36 36 36 36 36 37 37 37 37 37 37 37 37 37 37 37 37 38 38 37 35 32 32 33 34 34 34 34 35 34 33 33 33 33 34 34 34 35 36 37 38 39 39 40 40 38 37 38 38 39 39 40 41 37 37 37 34 38 40 39 40 39 41 43 39 36 36 34 34 37 37 35 33 33 35 35 35 35 35 35 34
38 38 38 38 38 38 38 38 38 38 37 38 38 39 40 39 39 39 39 39 38 38 38 39 39 39 40 35 32 34 35 34 35 35 36 36 35 34 34 33 33 33 33 34 34 35 36 38 40 40 40 40 38 38 38 38 40 40 41 42 37 37 37 33 37 39 38 39 38 41 44 40 35 34 34 35 38 39 38 34 33 34 35 36 35 36 36 36
39 40 40 40 40 40 39 40 40 39 39 40 39 40 41 41 41 40 40 41 40 40 39 40 40 41 41 36 33 36 36 36 37 37 38 38 36 35 34 34 34 33 33 34 34 35 36 38 40 40 40 39 38 38 38 38 39 39 40 40 38 40 39 33 35 37 37 38 37 39 44 40 33 32 32 34 37 38 39 36 34 33 33 35 35 35 36 36
40 40 40 40 40 39 39 40 39 39 40 40 41 42 42 42 42 41 42 42 41 41 41 42 41 43 43 37 33 36 36 36 37 38 39 39 37 36 35 35 36 35 35 35 36 36 37 38 40 40 40 39 37 38 39 39 38 37 39 39 38 43 42 34 32 34 36 38 37 38 43 39 32 29 30 32 35 36 38 36 34 32 31 32 33 34 34 35
40 41 41 41 40 39 39 39 39 39 39 40 41 43 44 44 44 43 43 43 43 43 43 44 43 45 45 39 35 36 36 36 38 38 39 38 37 36 36 37 36 36 37 37 37 38 38 40 41 41 40 38 36 38 40 40 36 34 38 40 40 43 43 38 32 32 35 39 39 40 42 38 29 27 28 30 32 34 36 36 33 31 29 29 30 32 32 33
41 42 42 42 41 40 40 40 40 40 41 41 42 43 45 46 46 46 46 45 45 44 45 46 45 47 47 41 38 37 37 38 39 38 38 37 36 35 36 36 37 37 38 39 39 39 40 42 43 43 41 38 35 38 41 40 35 34 38 43 43 43 43 40 35 35 37 40 42 44 45 39 30 29 30 28 30 33 34 34 32 30 29 29 29 29 30 32
43 43 43 43 43 42 42 42 43 43 44 44 45 45 46 47 47 47 48 47 47 47 47 48 48 49 48 43 42 40 38 40 40 39 38 37 36 36 36 36 37 38 39 40 40 41 43 44 46 46 42 37 35 37 42 40 37 38 41 44 46 44 43 41 37 38 40 42 45 47 48 44 36 33 31 29 30 32 32 32 31 30 29 30 30 29 29 32
44 45 45 45 45 45 45 45 46 46 46 46 47 47 48 49 49 49 49 49 49 48 49 50 50 51 50 46 45 43 41 41 42 41 39 38 39 38 38 37 37 39 39 39 40 43 45 47 50 49 41 36 35 39 43 42 41 43 44 46 47 46 46 41 37 40 43 46 48 47 49 48 42 36 33 31 31 31 30 31 32 30 30 30 30 29 29 31
46 46 47 47 48 47 48 48 49 48 48 47 47 48 49 50 51 51 51 51 50 49 50 51 51 52 51 49 48 46 44 44 44 42 40 40 41 40 40 39 40 40 39 39 41 44 45 49 52 48 40 36 37 41 44 44 45 46 47 47 47 48 47 42 39 40 44 50 51 49 51 51 45 39 35 34 32 29 28 30 31 30 30 30 29 29 30 32
48 48 49 50 50 50 50 50 50 50 48 47 47 47 48 49 50 51 52 52 52 51 51 51 53 53 51 51 50 48 47 47 45 42 41 42 42 42 41 41 43 42 40 41 44 44 45 48 49 44 40 39 41 43 44 46 47 49 49 49 49 50 49 45 42 42 45 52 54 52 54 54 47 40 37 35 34 30 28 29 28 28 30 29 29 30 31 34
51 51 51 52 52 52 51 51 51 50 48 48 47 47 47 48 49 50 52 53 51 51 52 52 54 54 53 52 51 49 49 48 45 43 43 43 42 42 42 43 44 43 42 44 43 43 46 47 44 41 40 42 43 44 45 47 50 52 51 51 53 51 50 49 46 44 47 54 55 54 57 56 49 42 37 35 35 33 29 28 26 26 28 29 30 31 32 35
53 53 53 53 53 53 52 51 50 49 48 48 47 47 47 48 49 50 52 53 51 50 52 52 53 55 55 53 51 50 50 47 45 45 44 43 43 42 43 44 44 44 45 44 42 44 48 47 42 42 44 43 44 44 46 49 52 54 53 54 56 52 51 54 50 47 51 55 56 57 60 59 51 44 38 34 34 32 29 27 25 25 27 29 30 32 33 34
54 54 55 55 55 54 53 51 50 48 48 48 47 47 48 48 49 51 52 54 53 50 49 50 53 55 54 53 53 51 49 47 46 46 44 43 43 43 44 43 45 47 45 42 43 47 49 46 44 46 46 44 44 44 45 48 51 53 53 54 56 53 53 55 54 52 55 58 57 58 63 61 52 46 40 35 34 32 29 30 27 26 29 30 29 30 33 34
53 53 54 54 54 54 53 51 50 49 48 48 48 48 49 49 50 51 53 56 57 52 49 50 52 52 51 51 51 49 48 47 46 44 42 42 42 43 44 44 47 47 44 43 45 50 49 45 43 46 47 45 45 45 44 45 48 51 52 52 52 53 54 55 55 56 59 61 59 59 65 63 54 48 43 39 37 34 32 31 28 27 30 32 31 29 29 32
51 51 51 51 51 52 51 50 50 50 50 49 49 49 50 50 50 51 53 56 59 55 52 52 51 48 47 47 46 46 48 46 43 41 41 41 41 42 44 46 47 46 44 44 46 51 50 44 43 45 47 47 48 48 45 42 46 51 51 49 49 52 54 54 55 57 60 63 62 62 65 65 58 51 46 44 41 37 33 31 28 28 30 32 33 30 29 31
53 52 51 50 50 51 51 51 51 51 50 50 51 51 51 51 50 51 52 56 60 56 55 55 52 48 45 44 44 44 46 44 41 40 41 41 41 42 45 46 45 44 44 45 49 52 48 45 46 46 46 48 49 49 45 43 48 51 49 49 49 50 52 54 56 58 60 61 63 64 66 67 62 53 48 48 46 40 35 31 30 31 30 30 33 34 33 33
55 54 53 53 52 53 53 53 53 53 52 52 52 52 52 51 51 50 50 56 60 57 56 54 51 49 46 44 43 42 43 42 41 41 40 41 42 43 45 45 45 45 45 48 51 50 48 47 48 48 49 50 48 46 45 45 48 49 48 49 50 50 51 52 54 57 59 60 60 62 65 66 63 55 52 53 50 43 36 33 32 31 30 29 30 35 36 37
54 54 54 54 54 54 55 55 55 55 54 54 53 52 52 52 52 50 51 57 60 58 55 52 52 52 49 47 45 44 44 43 43 43 41 41 41 43 45 45 45 46 46 49 51 49 49 49 49 50 51 50 47 46 46 47 49 48 49 50 50 51 51 52 53 54 57 59 57 60 63 64 62 56 53 54 50 45 40 36 33 32 30 25 24 29 34 38
52 53 53 54 54 56 56 56 56 57 57 56 54 53 53 53 52 52 55 59 60 59 56 53 54 54 52 50 49 48 47 45 43 42 41 41 41 42 44 46 46 47 47 49 51 49 48 49 51 52 51 49 48 48 48 49 50 49 49 50 51 53 53 53 54 54 57 59 57 59 61 61 60 55 53 54 51 47 43 38 36 36 33 26 21 25 30 35
49 51 52 53 55 57 57 56 57 58 58 57 55 53 54 54 52 54 59 59 58 58 56 56 57 56 54 54 52 51 49 47 45 44 44 44 43 43 45 46 47 48 49 51 51 50 49 51 52 51 51 51 50 50 51 51 50 49 50 51 50 52 53 55 56 56 59 59 57 58 59 59 58 56 56 58 54 50 46 43 41 41 41 34 25 24 29 33
50 50 50 50 53 55 56 55 56 56 56 55 53 52 53 53 53 56 57 55 56 56 54 55 58 57 57 56 53 52 51 50 49 49 47 45 45 45 46 47 48 50 52 52 51 52 52 52 52 53 53 52 51 52 52 51 49 48 50 50 48 51 56 58 58 58 59 60 57 57 59 59 57 55 57 58 55 52 51 50 48 45 48 45 32 26 28 31
51 50 49 49 50 52 52 52 52 52 52 51 51 51 53 53 53 52 52 51 53 53 51 52 55 55 55 54 52 52 53 53 52 51 50 48 48 48 48 50 49 50 51 51 51 53 54 53 52 54 53 50 50 50 49 49 48 49 51 49 49 53 56 56 56 58 59 59 55 55 58 59 56 55 57 56 55 54 53 53 51 48 52 51 39 29 27 29
51 51 51 50 50 50 50 49 48 49 51 52 52 53 55 55 52 51 52 52 52 52 52 53 54 55 55 55 54 54 54 55 55 55 55 55 56 55 54 53 52 51 52 51 51 52 54 53 51 52 51 49 50 49 47 47 49 51 52 51 53 56 55 52 54 58 59 58 55 56 59 58 56 56 57 57 56 55 54 52 50 49 52 55 46 33 26 28
55 55 54 53 52 51 51 51 49 49 50 53 56 58 58 57 53 52 55 55 54 55 54 54 56 57 57 57 57 57 57 59 59 60 61 61 62 61 59 57 56 55 54 55 55 54 55 56 53 52 53 51 51 51 50 52 54 55 56 57 59 56 53 53 55 56 58 59 58 60 62 60 58 58 57 57 58 57 56 54 52 51 52 55 48 35 29 30
59 59 58 57 56 55 54 54 53 52 51 52 56 59 58 56 56 56 57 58 58 58 58 58 58 59 60 60 59 59 59 61 63 63 64 64 64 63 62 62 60 58 58 58 57 56 57 57 53 53 55 53 52 52 53 55 57 58 60 61 59 55 54 57 58 56 56 61 61 61 63 61 59 59 58 57 56 55 55 54 54 53 53 54 50 41 36 35
62 62 61 60 60 61 60 59 57 57 56 54 56 58 57 57 58 59 60 60 60 61 62 63 62 61 63 63 62 62 62 64 65 66 66 66 67 65 64 64 63 62 61 60 59 57 56 57 56 56 57 56 55 54 54 56 58 59 60 58 56 56 57 59 60 59 58 62 62 61 62 62 61 61 61 59 56 55 55 55 55 54 53 55 56 52 44 39
67 67 66 64 65 65 65 65 64 63 62 62 61 60 61 63 63 62 62 62 62 62 63 65 66 65 66 66 67 66 66 67 67 67 68 69 70 68 66 66 66 66 65 62 61 60 58 59 59 60 61 61 58 57 58 59 60 60 58 56 58 60 61 62 64 63 61 64 65 63 62 63 63 61 60 60 57 57 58 57 56 57 57 57 58 59 51 41
71 72 71 69 70 70 70 70 70 68 69 71 70 68 68 68 67 65 65 64 64 64 64 65 66 67 68 68 69 68 67 68 68 68 68 70 71 70 68 67 69 70 68 65 63 62 62 63 64 63 63 63 61 61 63 63 62 61 60 61 62 63 65 66 67 66 65 67 68 66 65 64 63 60 58 60 59 60 62 61 60 61 62 61 59 60 57 46
73 74 74 73 74 74 73 74 74 73 74 76 76 75 74 73 71 69 67 66 66 66 66 65 65 66 67 68 69 68 67 68 68 69 69 71 71 70 69 69 71 73 73 71 69 68 68 68 68 65 63 64 64 62 62 62 62 63 64 64 65 65 66 68 69 68 68 70 71 71 71 67 61 59 60 61 62 63 65 64 63 62 61 60 59 59 62 56
74 76 75 74 76 76 76 77 77 78 79 79 79 79 78 77 76 73 72 72 72 71 70 69 68 69 69 69 69 69 69 70 70 71 71 71 71 71 71 72 73 75 75 73 72 70 69 67 67 66 66 68 67 62 60 60 63 66 68 68 67 66 67 69 71 70 69 72 73 74 77 70 60 59 62 63 65 65 65 63 61 60 59 59 59 60 65 64
75 76 75 74 77 78 78 79 80 80 81 82 81 80 79 78 78 77 77 78 78 78 77 76 75 74 73 73 72 70 72 74 73 73 74 72 71 72 72 72 71 69 68 68 68 67 66 65 67 69 69 68 65 62 60 57 57 61 66 68 67 67 67 70 73 71 69 74 75 75 80 75 61 59 62 62 63 63 64 63 60 59 60 61 62 62 65 67
75 76 75 75 77 78 79 81 82 82 82 82 81 80 80 79 79 78 78 79 80 80 80 80 79 78 78 77 75 72 71 72 73 73 73 71 67 64 63 63 62 61 61 63 65 66 65 66 67 68 65 62 59 56 56 55 54 57 61 63 63 65 66 69 72 73 73 76 76 76 81 75 60 56 60 61 62 63 63 62 60 60 62 64 65 65 67 68
74 74 75 75 76 79 81 82 82 83 82 81 81 81 81 81 81 80 80 80 80 80 80 80 80 80 80 79 78 76 73 72 74 73 71 70 67 62 61 61 61 62 64 65 66 65 63 61 61 62 60 58 54 52 52 52 52 55 57 58 61 62 64 67 70 72 74 74 70 70 74 70 59 54 58 61 62 64 63 61 61 63 65 66 66 66 67 68
75 75 75 75 76 78 80 81 81 82 83 82 83 83 82 83 83 81 80 80 79 80 81 81 81 80 80 80 81 82 80 79 80 80 79 78 75 71 70 69 66 64 65 65 63 60 58 56 55 56 57 56 53 52 52 50 50 51 52 53 56 57 59 62 64 65 69 68 64 63 64 65 61 58 58 58 59 61 61 60 62 65 67 68 67 66 66 67
77 77 76 76 78 79 79 79 79 81 82 82 83 84 83 83 83 81 80 81 80 80 81 81 81 81 81 82 83 84 84 85 87 89 90 89 86 82 81 81 77 71 66 64 64 64 64 63 59 59 59 58 57 56 55 54 54 53 51 50 51 51 50 52 57 61 64 65 65 64 62 63 61 57 57 57 58 59 59 60 63 65 66 66 67 67 69 70
78 78 77 78 79 80 80 80 80 81 81 81 82 83 83 83 83 83 83 83 82 80 81 82 82 82 83 83 84 85 86 86 88 91 92 92 91 90 90 90 89 84 77 73 73 74 77 76 72 69 69 66 65 65 63 62 63 62 60 58 57 57 54 54 59 63 64 68 72 69 65 64 60 54 53 56 58 58 57 59 63 65 65 66 67 68 69 69
77 77 77 79 80 81 81 81 81 81 81 80 82 83 82 82 83 84 84 84 83 82 83 84 84 83 83 83 84 85 86 87 88 90 90 90 90 90 91 92 92 91 88 85 83 83 86 89 86 84 83 80 77 75 72 71 72 72 71 70 69 68 66 65 66 65 67 74 78 73 69 68 65 58 54 52 51 53 53 53 54 56 57 58 61 64 65 67
76 76 76 78 79 79 79 80 80 81 81 81 82 82 82 83 84 83 83 83 83 83 84 86 86 85 84 83 84 84 85 86 87 87 88 89 89 90 91 92 91 91 91 92 91 90 92 95 95 95 96 96 94 91 89 87 86 85 83 82 81 79 77 77 76 74 75 80 82 78 77 76 72 66 62 57 55 58 62 60 56 55 55 55 58 62 63 64
73 73 74 75 76 76 76 77 78 79 80 80 82 82 82 82 81 81 81 82 82 82 84 85 85 83 80 78 79 80 80 80 80 81 81 82 83 84 86 88 89 89 91 93 94 96 96 97 98 96 95 98 98 97 96 94 92 90 89 87 86 86 88 89 88 85 85 89 89 87 88 87 81 75 73 70 68 70 71 70 68 68 66 66 66 65 64 66
72 72 73 73 74 73 73 74 75 76 77 78 79 80 80 79 79 79 80 81 81 81 82 83 84 83 81 80 80 78 77 76 76 77 77 77 78 80 81 84 85 86 88 90 92 94 94 95 95 90 87 90 92 90 89 87 85 86 87 87 87 91 91 88 87 87 88 90 91 90 91 92 87 81 79 78 77 76 75 75 78 80 79 77 74 68 66 69
72 73 73 73 74 73 72 72 73 74 75 74 75 77 77 77 78 79 81 81 80 79 80 81 83 84 85 84 83 82 82 82 82 81 80 80 79 78 77 77 77 77 78 80 83 86 88 90 91 88 87 90 92 91 89 85 82 84 86 84 82 79 75 70 72 77 81 84 85 85 86 85 82 80 81 83 85 85 84 84 85 83 79 74 69 64 64 67
Wind_Direction
261 262 263 265 267 268 269 270 272 273 274 276 277 278 279 281 283 284 286 287 288 289 290 290 290 290 290 290 289 288 286 284 282 281 281 283 284 285 287 288 289 290 291 292 293 295 295 296 297 298 299 300 302 303 304 306 307 308 311 312 313 316 316 318 320 317 316 318 322 324 325 324 324 325 322 323 325 325 329 334 331 324 328 330 322 317 316 317
262 263 264 265 266 267 268 269 270 271 272 273 274 275 276 277 278 280 282 283 285 286 287 288 288 288 289 289 289 290 290 289 287 285 285 285 284 284 284 284 284 284 285 286 287 288 289 290 292 292 293 294 296 297 298 300 301 302 305 307 307 309 311 313 314 312 313 314 316 318 321 320 319 321 319 319 320 318 324 330 325 324 329 329 322 321 321 319
264 265 265 266 267 267 268 269 270 271 271 272 273 274 274 275 276 277 278 279 281 282 283 285 286 286 287 287 288 289 290 291 290 289 290 289 288 288 287 286 285 285 284 284 284 284 285 286 287 289 290 291 292 293 294 295 297 299 303 304 303 304 307 309 308 310 311 311 313 312 312 312 311 314 314 314 315 312 316 322 319 319 324 325 321 319 320 319
266 267 267 268 269 269 270 270 271 271 272 272 272 273 274 274 275 275 276 277 278 279 280 281 282 283 285 285 286 288 289 290 290 290 290 290 290 290 289 289 288 288 287 286 285 285 285 285 286 287 288 289 289 290 291 292 293 296 300 301 300 300 304 306 305 307 307 306 308 306 306 306 304 306 306 308 310 306 309 313 312 313 316 318 315 314 316 316
267 268 268 269 270 271 271 272 273 273 273 273 273 274 274 274 274 274 275 275 276 277 278 278 279 280 281 282 284 285 287 288 288 287 288 289 289 289 289 289 289 289 289 288 288 288 287 287 286 286 287 288 288 289 291 292 292 293 297 297 297 298 301 302 301 304 304 303 303 301 302 302 301 301 300 303 303 300 303 306 305 306 308 311 310 309 310 310
266 267 268 269 270 271 272 272 273 274 274 275 275 275 275 275 275 275 275 275 275 275 276 277 277 278 279 280 281 282 285 285 284 285 286 287 288 288 289 289 289 288 288 288 289 289 288 288 288 287 288 289 289 290 291 292 292 294 295 294 294 296 297 298 298 300 301 300 300 298 299 300 298 297 298 302 298 295 297 299 299 299 301 302 301 303 305 306
266 267 268 268 269 270 271 272 273 274 275 275 276 277 277 277 277 277 276 276 276 276 276 276 276 277 277 278 279 281 283 283 282 283 285 286 287 288 288 288 288 288 288 288 288 288 288 288 288 288 289 289 290 291 291 291 293 293 293 292 294 295 295 294 294 296 297 297 296 296 298 298 295 294 298 300 294 292 294 294 294 293 294 294 292 294 297 299
265 266 266 267 268 269 270 270 271 272 273 274 275 276 277 277 278 278 278 278 278 278 278 277 277 277 277 278 279 281 282 281 282 283 283 284 286 286 286 287 287 288 288 288 288 288 289 288 288 288 289 289 290 291 290 290 291 292 291 291 293 294 294 294 294 295 295 295 295 295 296 296 294 294 298 298 292 291 292 292 292 290 291 290 289 289 290 293
262 263 264 265 266 266 267 268 269 270 271 272 273 274 275 276 277 278 278 279 279 280 280 280 279 279 279 279 280 283 283 281 282 283 283 284 284 284 285 286 286 287 287 288 288 288 288 288 288 288 288 288 289 290 290 290 291 291 290 291 293 293 293 294 295 295 293 293 294 294 294 293 292 293 297 294 290 291 291 291 290 289 288 288 288 288 288 288
261 262 262 263 263 264 264 265 266 267 268 270 271 272 272 273 274 276 277 278 278 280 280 280 281 281 281 280 282 284 283 282 284 285 284 283 283 283 284 285 286 286 286 287 287 288 288 287 288 288 288 288 289 289 289 291 291 291 291 292 293 292 293 295 294 292 291 291 292 291 290 290 291 292 294 291 287 289 290 289 289 288 287 287 287 287 286 287
263 263 264 264 264 264 264 265 266 266 267 268 269 270 271 271 272 273 275 275 276 278 279 279 280 280 281 281 284 284 282 283 285 284 284 284 283 283 284 284 285 286 286 286 286 287 287 287 287 287 288 287 288 288 289 290 291 291 292 292 292 292 293 294 293 291 291 292 292 290 287 288 290 291 292 289 287 288 287 286 286 286 287 287 287 286 285 285
264 264 265 265 265 266 266 267 267 267 268 268 269 269 269 270 271 271 272 273 274 275 276 277 278 279 280 281 285 284 283 285 285 284 284 283 283 283 284 285 285 286 286 286 286 287 286 286 287 286 287 287 288 288 287 289 290 291 292 291 292 292 292 294 291 291 292 293 292 289 287 287 289 290 290 288 286 286 285 284 283 284 286 286 286 285 284 283
264 264 264 265 265 266 267 267 268 268 269 270 270 270 269 269 270 270 271 271 271 272 273 274 275 276 277 280 284 284 284 285 285 286 285 284 284 285 286 286 286 286 286 287 286 286 286 286 286 285 286 287 288 287 287 289 289 291 291 290 293 290 289 291 291 292 294 293 291 288 286 287 288 288 288 286 285 285 285 284 281 281 283 283 283 283 283 283
264 264 264 265 265 266 266 267 268 269 270 270 271 271 271 271 270 270 270 270 270 271 271 271 273 274 276 278 281 281 282 283 284 285 283 284 286 287 289 289 288 288 289 288 287 286 286 286 286 286 286 286 287 288 289 289 289 291 290 292 295 290 288 292 293 295 295 292 291 287 285 286 286 286 286 284 283 284 286 285 283 282 282 281 281 281 281 282
264 264 264 264 265 266 267 267 268 270 270 271 271 271 271 271 271 271 270 270 270 270 270 271 272 274 275 277 279 279 280 281 281 281 281 283 286 288 289 289 289 290 290 289 289 289 289 288 287 287 286 287 289 290 290 289 289 292 292 292 291 288 291 294 294 296 295 292 291 287 286 287 286 284 283 282 283 284 284 285 284 283 282 281 280 279 278 279
264 264 264 265 265 265 266 268 269 271 271 272 273 272 272 272 272 272 271 271 270 270 270 270 272 274 275 277 276 276 278 279 279 280 281 283 284 286 287 287 289 290 290 290 290 290 290 289 287 286 286 287 291 293 292 290 292 295 292 289 287 288 291 294 295 295 292 291 291 288 287 290 289 284 280 280 282 283 283 283 283 284 283 281 280 278 279 279
264 265 265 265 264 265 266 268 270 272 272 272 272 273 273 273 273 272 272 271 271 270 270 271 272 273 274 276 275 274 276 277 278 280 281 282 284 286 286 287 288 288 288 288 288 289 289 287 286 285 285 288 293 295 292 292 294 292 286 285 285 287 290 293 296 294 291 290 290 288 288 292 294 288 283 281 281 281 281 283 284 285 286 284 283 281 281 280
264 264 264 264 264 265 267 269 272 274 273 272 271 270 271 272 272 271 271 271 271 271 271 271 272 272 273 275 275 275 275 276 278 279 280 283 285 286 287 288 288 288 286 286 287 287 286 285 283 282 284 291 297 295 290 290 292 286 283 284 286 288 289 291 296 296 294 291 289 289 291 294 294 292 291 289 286 282 282 284 284 284 286 287 287 285 283 280
263 263 263 263 264 265 268 271 274 275 275 273 271 269 268 269 270 270 270 270 270 271 271 271 272 273 274 274 274 274 274 275 276 277 279 282 284 285 287 288 288 287 286 288 288 284 282 281 279 280 287 296 296 289 285 287 286 284 284 284 286 288 288 291 297 296 295 292 290 291 292 292 293 294 295 292 289 286 286 286 284 284 285 286 287 287 283 281
261 261 262 263 264 266 269 272 275 276 275 273 272 271 269 268 268 268 269 269 270 270 270 271 272 272 273 274 274 274 274 274 274 276 279 281 282 283 284 286 286 286 287 288 285 281 280 279 278 283 292 295 289 283 283 284 284 284 284 284 286 286 287 291 294 292 293 291 290 291 290 289 291 293 293 291 289 289 289 286 284 284 285 286 286 286 284 282
260 261 261 262 264 266 269 272 275 275 274 273 273 272 271 270 269 268 268 268 268 269 269 270 271 272 272 273 273 273 273 273 274 277 278 278 278 280 282 284 284 284 286 284 281 282 281 279 281 288 292 287 282 281 282 283 283 283 282 283 284 284 287 289 289 289 290 287 287 289 289 288 289 290 289 289 290 291 290 285 283 282 282 284 284 281 281 282
261 261 261 262 263 266 268 271 272 272 272 273 273 273 273 272 272 271 270 269 268 268 269 269 270 272 272 272 272 273 273 273 276 277 276 276 277 280 281 281 281 283 282 280 281 283 281 280 286 290 287 282 280 281 282 282 282 281 283 284 283 285 288 287 288 289 287 285 286 288 288 287 287 287 286 289 290 290 288 285 283 280 279 281 283 283 282 283
262 262 263 263 264 265 267 268 269 269 270 271 272 272 272 272 272 272 271 271 269 267 268 269 270 271 271 272 273 273 274 276 278 277 276 277 279 280 279 279 280 279 278 279 282 282 279 282 288 286 283 281 281 281 280 280 280 281 283 284 284 287 290 288 289 289 285 284 286 287 287 285 285 286 287 289 288 288 288 286 284 280 278 279 282 285 285 284
263 263 263 264 264 265 266 266 265 266 268 270 271 271 272 272 272 272 271 271 270 268 267 268 268 268 270 271 272 273 276 278 277 277 278 279 279 278 277 278 276 275 276 279 280 278 277 281 285 283 282 283 283 282 280 279 278 279 280 282 284 287 288 287 288 288 285 284 285 287 286 284 285 286 288 288 286 287 289 286 283 281 280 279 279 281 282 282
264 264 264 264 264 264 263 263 263 265 266 268 269 270 271 271 272 272 271 272 272 271 269 267 266 268 270 271 273 276 277 276 276 277 278 277 277 276 275 274 273 274 277 277 277 275 275 278 280 281 282 284 283 282 280 279 280 281 279 280 282 284 284 284 286 286 285 284 285 286 285 285 287 286 288 288 285 286 287 284 281 280 280 282 283 282 280 280
263 264 264 264 264 262 261 261 262 264 266 267 268 270 271 271 271 271 271 272 273 274 272 269 267 268 270 272 274 276 276 277 279 279 278 277 275 273 271 270 271 274 276 276 274 273 274 278 278 278 280 281 280 279 279 281 282 281 280 281 280 280 280 280 281 282 282 284 285 284 283 285 288 288 290 290 287 286 285 284 284 284 283 285 287 287 283 281
262 262 263 263 262 262 261 262 264 265 267 268 270 271 271 271 271 271 272 273 272 273 273 272 272 272 272 272 272 273 275 278 279 277 276 276 274 272 271 272 273 273 274 273 272 273 277 280 278 277 277 276 276 279 282 282 279 279 282 282 280 278 278 277 278 278 279 281 282 282 282 284 288 291 293 292 289 287 288 290 291 289 285 284 287 288 288 285
262 262 262 261 261 262 262 264 265 266 267 269 271 272 272 271 271 271 273 272 272 272 272 274 277 277 275 274 273 273 275 275 275 274 274 275 275 274 273 273 273 273 272 270 271 274 277 276 276 277 275 274 276 279 279 278 277 279 280 279 279 280 279 278 277 277 277 277 278 278 280 282 288 293 294 292 290 291 295 297 294 288 284 285 287 288 288 286
262 262 261 260 261 262 263 264 266 267 267 269 270 271 272 271 270 271 270 270 271 273 274 277 279 278 278 278 277 276 274 273 272 272 274 274 274 274 273 272 272 271 271 270 270 272 274 275 276 275 274 276 279 278 277 276 277 278 278 279 280 280 280 280 279 278 277 276 276 277 279 282 288 292 291 288 290 294 298 297 294 289 285 286 289 288 286 284
263 262 261 261 261 261 262 264 267 268 267 268 269 270 271 271 271 270 268 268 271 274 277 278 278 278 279 279 279 278 275 273 271 270 271 272 271 270 271 271 271 271 270 270 270 271 273 273 273 274 276 277 278 277 276 276 277 279 279 280 279 279 279 278 277 276 274 275 277 279 280 283 288 291 290 289 291 293 295 296 294 291 286 284 290 290 284 281
264 263 263 262 261 261 262 265 267 268 268 268 269 270 271 271 269 268 268 271 274 275 276 277 277 278 279 278 278 278 277 275 272 271 271 270 269 268 268 270 272 273 272 271 271 272 272 271 272 273 274 274 274 274 275 276 278 280 280 279 278 277 276 275 274 273 273 276 279 281 282 283 283 286 288 289 291 293 296 296 293 291 289 287 290 291 284 279
265 265 265 265 263 262 263 264 266 268 270 271 272 272 272 270 268 269 273 275 274 274 275 276 277 278 277 277 277 277 277 276 276 276 274 271 268 267 268 269 271 272 273 273 274 274 271 270 272 272 271 273 274 274 274 275 277 277 277 276 275 274 273 272 272 272 273 277 281 283 284 282 280 280 283 285 289 293 295 293 292 293 293 291 295 299 292 281
267 267 267 267 267 265 263 263 265 268 269 271 272 273 273 270 269 271 274 273 272 274 276 275 276 277 276 276 275 276 277 277 278 279 277 274 273 272 272 272 272 273 273 272 271 272 271 270 272 274 275 277 276 274 274 274 273 272 271 271 271 271 270 270 272 275 277 279 280 281 279 278 280 281 283 285 288 289 289 289 292 294 293 293 297 304 298 283
268 268 268 268 269 267 265 263 263 264 264 265 267 268 268 269 270 272 273 272 271 272 272 272 273 274 274 274 274 275 277 277 277 278 278 278 278 278 277 275 275 276 276 274 271 271 273 272 272 275 276 276 275 275 275 275 272 270 269 268 267 267 268 270 274 277 278 277 277 275 273 276 281 283 285 286 287 286 286 289 293 294 293 294 299 305 299 287
267 267 268 268 269 268 267 265 264 262 262 262 263 263 263 265 268 270 271 272 271 270 269 269 269 269 270 271 272 273 275 276 276 277 277 278 278 279 279 277 276 276 276 276 275 275 276 274 274 275 275 273 272 272 273 274 272 271 271 269 268 269 269 270 272 273 274 274 274 273 273 276 280 281 282 283 284 286 290 293 293 292 292 293 298 303 298 293
266 266 266 267 268 268 266 265 264 263 262 261 262 261 261 262 264 265 266 267 268 268 267 266 266 267 268 268 269 270 272 274 275 275 276 275 275 276 278 278 279 279 278 277 278 279 279 277 275 274 273 272 271 270 270 271 271 270 269 270 272 273 271 270 270 270 270 271 271 273 274 277 278 279 280 280 282 286 289 290 290 291 293 294 297 299 298 295
266 266 265 266 267 267 266 264 262 260 259 259 261 261 260 260 261 261 262 264 265 267 267 265 265 265 267 268 268 269 270 271 272 272 274 274 274 276 278 279 280 280 280 280 279 278 276 275 273 271 271 270 270 270 269 268 268 268 268 272 275 274 271 271 271 271 269 269 269 270 272 274 276 279 282 284 286 286 285 286 289 291 293 295 297 297 295 292
265 265 265 265 266 267 267 266 263 261 259 257 258 259 259 260 261 261 261 261 263 265 267 267 265 264 265 266 267 268 269 271 271 272 274 274 274 275 276 277 278 280 282 282 279 276 275 276 274 272 271 270 269 269 269 268 269 271 272 272 272 272 272 272 272 272 271 269 269 267 267 269 273 277 281 284 285 284 283 284 288 290 291 292 296 296 293 287
265 265 265 265 266 266 266 266 265 263 261 260 259 260 261 262 261 261 260 260 260 261 263 266 267 267 265 265 266 267 268 271 273 274 275 275 274 274 274 275 277 279 280 279 277 276 278 280 279 277 276 274 272 270 270 271 274 275 274 271 270 270 270 270 270 270 270 269 268 267 265 265 270 274 276 277 279 280 280 282 285 288 291 292 292 293 291 287
264 265 265 265 266 265 265 265 264 263 262 262 262 262 261 261 260 260 260 260 260 261 261 262 264 265 265 265 265 266 267 269 271 273 275 275 275 275 274 276 278 278 278 277 277 278 281 282 283 283 281 278 275 273 272 273 274 274 273 272 270 270 270 269 268 267 268 269 270 270 268 264 266 270 271 273 275 276 278 281 284 285 287 288 289 290 290 287
264 264 264 264 264 264 264 264 263 263 263 263 263 262 262 261 261 261 260 261 262 262 262 262 263 264 265 265 265 265 267 268 269 271 273 274 275 276 276 277 279 279 279 280 280 281 282 283 283 282 281 281 280 278 276 272 269 269 270 271 271 271 269 268 268 267 268 269 269 271 270 267 263 265 268 270 272 275 278 280 281 282 282 285 287 287 287 287
262 263 263 262 263 263 263 263 263 262 262 263 263 264 264 263 262 262 262 263 264 264 264 264 265 265 267 268 268 267 268 270 270 271 272 273 273 273 274 275 275 276 278 279 279 279 280 281 280 279 280 280 280 279 278 276 271 267 265 266 267 267 267 267 268 269 268 267 267 267 268 267 265 265 269 271 272 274 275 276 278 281 285 287 286 284 284 286
261 262 261 261 261 263 263 263 263 263 263 264 264 265 265 265 264 263 263 264 265 265 265 266 266 267 267 269 269 269 269 269 268 268 269 269 268 268 271 272 272 274 277 278 278 278 279 279 277 277 276 276 275 275 276 275 270 265 263 264 264 264 265 266 267 268 266 264 265 265 265 267 268 269 269 270 270 270 272 275 279 283 285 284 283 282 282 283
263 262 262 261 261 262 263 264 264 264 265 265 265 265 266 265 265 265 265 265 265 266 266 266 266 267 267 266 266 266 266 266 267 265 263 263 263 264 269 272 273 275 277 278 278 277 277 275 275 276 276 275 274 272 271 271 269 265 264 263 261 261 262 263 265 266 265 264 264 266 267 267 268 267 266 266 268 269 271 275 279 282 281 279 278 279 280 281
267 266 265 264 262 262 263 264 265 266 266 265 265 265 266 266 266 267 267 267 267 267 267 267 267 266 266 265 264 264 264 264 265 265 263 264 263 263 267 271 272 273 275 275 273 272 271 270 271 274 275 274 272 268 266 267 265 263 261 259 259 259 260 264 267 266 264 264 262 262 267 267 264 262 262 263 266 268 270 275 278 279 277 276 277 277 278 279
269 269 268 267 266 265 264 264 265 266 267 267 266 266 266 267 267 268 267 267 267 268 268 268 267 266 266 266 266 265 264 264 264 265 265 265 264 264 266 269 270 270 271 271 269 270 270 268 267 267 268 269 269 267 266 264 261 260 260 259 258 259 261 266 268 265 265 266 263 262 266 268 265 262 259 260 264 267 269 272 273 272 272 274 276 277 278 278
269 270 269 269 268 268 267 267 267 267 268 268 268 268 267 267 267 267 267 267 268 268 267 267 267 267 267 267 267 267 267 266 265 266 266 266 265 265 266 268 269 270 270 269 268 269 270 270 269 268 267 266 267 267 267 265 262 262 262 261 261 263 262 262 261 261 264 267 265 265 266 268 268 266 262 262 264 265 266 268 268 269 271 273 274 275 276 278
269 269 269 269 269 269 270 270 269 269 269 270 270 270 269 268 268 268 267 267 267 267 268 268 268 269 269 270 269 268 268 267 267 267 268 268 267 266 265 265 266 267 268 269 268 268 270 271 271 270 270 270 269 269 267 265 264 264 263 263 263 264 263 262 260 261 264 267 267 267 267 267 268 269 267 265 265 265 266 268 269 269 270 273 276 277 278 278
269 269 269 269 269 270 270 271 270 270 270 270 270 271 271 271 270 270 270 270 269 269 269 269 270 270 271 270 270 269 269 269 270 270 270 269 269 268 267 265 264 264 266 268 269 269 270 272 272 272 274 274 274 273 273 272 271 270 270 269 269 269 268 268 268 267 268 271 273 273 272 270 269 270 270 268 268 270 270 270 270 271 272 276 279 280 280 278
269 269 269 268 269 269 269 270 270 270 270 270 271 271 272 272 272 271 271 270 271 270 270 270 270 270 270 270 269 269 269 269 269 269 269 269 269 269 269 268 266 265 265 266 268 268 270 272 273 275 276 276 276 276 277 277 277 276 276 275 274 274 274 274 275 275 276 277 277 277 277 276 274 275 277 276 277 279 280 279 278 277 277 280 282 281 278 274
270 270 270 269 269 269 269 269 269 269 269 269 271 271 271 270 270 270 269 269 269 270 270 270 270 269 269 268 268 268 268 267 266 266 266 266 266 267 267 268 269 268 267 266 267 268 270 272 273 275 276 276 276 276 276 277 279 278 277 276 277 278 278 278 279 278 278 279 279 278 279 279 279 280 282 283 284 286 288 288 286 284 284 285 285 282 277 271
271 271 271 270 270 270 270 270 269 269 269 270 270 270 269 269 269 270 270 269 268 269 269 270 270 269 269 269 268 267 266 266 266 267 267 267 266 265 265 266 268 269 268 268 267 268 269 270 272 273 275 275 275 276 278 280 279 276 277 279 279 279 278 277 276 276 276 278 278 279 280 282 283 284 284 285 285 286 287 288 289 288 286 284 281 278 275 273
Height
5886 5886 5886 5886 5886 5886 5887 5887 5887 5887 5887 5887 5887 5887 5887 5887 5887 5887 5887 5887 5887 5887 5887 5887 5887 5887 5887 5887 5887 5887 5887 5887 5887 5886 5886 5886 5886 5885 5885 5885 5884 5884 5884 5883 5883 5882 5882 5882 5881 5881 5880 5879 5879 5878 5877 5877 5876 5876 5875 5874 5874 5873 5873 5872 5872 5871 5871 5870 5870 5869 5868 5867 5867 5866 5865 5864 5864 5863 5863 5862 5862 5861 5861 5860 5859 5858 5857 5856
5884 5884 5884 5884 5884 5885 5885 5885 5885 5885 5885 5885 5885 5886 5886 5886 5886 5886 5885 5885 5885 5885 5885 5885 5885 5885 5885 5885 5885 5886 5886 5886 5885 5885 5885 5885 5884 5884 5884 5883 5883 5883 5882 5882 5881 5881 5880 5880 5879 5879 5878 5878 5877 5877 5876 5875 5875 5874 5874 5873 5872 5872 5871 5870 5870 5869 5869 5868 5868 5868 5867 5866 5865 5865 5864 5863 5863 5862 5862 5861 5860 5859 5859 5859 5858 5857 5857 5855
5882 5882 5882 5882 5882 5882 5883 5883 5883 5883 5883 5883 5883 5883 5883 5883 5884 5884 5883 5883 5883 5883 5883 5883 5883 5883 5883 5883 5883 5883 5883 5883 5883 5882 5883 5883 5882 5882 5882 5882 5881 5881 5880 5880 5879 5879 5879 5878 5878 5877 5877 5876 5876 5875 5874 5873 5873 5873 5872 5872 5871 5870 5870 5869 5868 5867 5867 5866 5865 5865 5865 5865 5864 5864 5863 5862 5862 5860 5860 5860 5859 5858 5858 5857 5856 5856 5855 5854
5879 5879 5879 5880 5880 5880 5880 5880 5881 5881 5881 5881 5881 5881 5881 5881 5881 5881 5881 5881 5881 5881 5881 5881 5881 5881 5881 5881 5881 5881 5881 5881 5880 5880 5880 5880 5880 5879 5879 5879 5879 5878 5878 5877 5877 5877 5876 5876 5876 5875 5875 5874 5874 5873 5872 5871 5871 5871 5870 5870 5868 5868 5868 5867 5866 5866 5865 5864 5863 5863 5863 5862 5862 5862 5861 5861 5860 5859 5858 5859 5858 5856 5856 5856 5855 5854 5853 5853
5877 5877 5877 5877 5877 5877 5878 5878 5878 5878 5878 5878 5878 5878 5878 5878 5879 5879 5879 5879 5878 5878 5878 5878 5878 5878 5878 5878 5878 5878 5878 5878 5877 5877 5877 5877 5877 5877 5876 5876 5876 5876 5875 5875 5874 5874 5873 5873 5873 5873 5872 5871 5871 5871 5870 5869 5869 5869 5868 5867 5866 5866 5866 5865 5863 5863 5862 5861 5861 5860 5860 5859 5859 5859 5859 5858 5858 5856 5856 5857 5856 5855 5854 5853 5853 5852 5851 5850
5874 5874 5874 5874 5874 5874 5875 5875 5875 5875 5875 5875 5875 5876 5875 5876 5876 5876 5876 5876 5876 5876 5876 5876 5875 5876 5876 5876 5876 5876 5876 5875 5874 5874 5874 5874 5874 5873 5874 5873 5873 5873 5872 5872 5871 5871 5871 5870 5870 5869 5869 5868 5868 5868 5867 5866 5866 5867 5866 5864 5864 5863 5863 5862 5861 5861 5860 5859 5858 5857 5857 5857 5856 5856 5856 5856 5854 5853 5853 5854 5854 5853 5853 5852 5851 5850 5849 5848
5870 5871 5871 5871 5871 5871 5872 5872 5872 5872 5872 5872 5872 5872 5872 5872 5872 5873 5873 5873 5873 5873 5873 5873 5873 5873 5873 5873 5873 5873 5873 5871 5870 5871 5872 5871 5870 5870 5870 5870 5870 5870 5869 5869 5868 5868 5867 5867 5866 5866 5866 5865 5864 5864 5863 5863 5863 5863 5863 5861 5861 5860 5860 5859 5859 5858 5857 5856 5854 5854 5854 5854 5852 5853 5854 5852 5850 5850 5850 5851 5851 5850 5850 5850 5849 5848 5847 5846
5867 5867 5868 5868 5868 5868 5868 5869 5869 5869 5869 5869 5869 5869 5869 5869 5869 5869 5869 5870 5870 5870 5870 5870 5870 5870 5870 5870 5870 5871 5870 5868 5867 5868 5868 5868 5867 5867 5867 5867 5866 5867 5866 5866 5865 5864 5864 5863 5862 5862 5862 5861 5861 5860 5859 5859 5860 5859 5859 5858 5858 5857 5856 5855 5855 5854 5853 5852 5851 5850 5851 5850 5848 5849 5852 5849 5845 5847 5847 5847 5846 5846 5847 5846 5846 5845 5845 5844
5863 5864 5864 5864 5865 5865 5865 5865 5865 5866 5866 5866 5866 5866 5866 5866 5866 5866 5866 5866 5866 5866 5866 5866 5866 5866 5867 5867 5868 5869 5867 5865 5864 5865 5865 5865 5864 5863 5863 5863 5863 5863 5863 5862 5861 5861 5861 5859 5859 5858 5858 5858 5858 5857 5855 5855 5856 5855 5854 5855 5855 5853 5852 5852 5851 5850 5848 5849 5848 5846 5847 5846 5845 5845 5849 5845 5841 5843 5843 5843 5842 5842 5842 5842 5841 5841 5840 5840
5860 5860 5860 5861 5861 5861 5862 5862 5862 5862 5863 5863 5863 5863 5862 5863 5863 5863 5863 5863 5863 5863 5863 5863 5863 5863 5863 5863 5865 5866 5863 5862 5862 5862 5861 5861 5861 5860 5860 5860 5860 5860 5859 5859 5858 5858 5857 5856 5855 5854 5854 5854 5854 5853 5851 5851 5851 5850 5849 5850 5850 5849 5849 5849 5848 5846 5844 5845 5845 5842 5842 5843 5841 5842 5845 5842 5837 5838 5839 5839 5838 5837 5838 5837 5837 5837 5836 5836
5856 5857 5857 5857 5857 5857 5858 5858 5859 5859 5859 5859 5859 5859 5859 5859 5860 5860 5860 5860 5860 5859 5859 5859 5859 5859 5859 5860 5862 5863 5860 5859 5859 5859 5858 5857 5857 5857 5857 5856 5856 5856 5856 5855 5855 5854 5853 5852 5852 5850 5850 5850 5851 5850 5848 5847 5847 5846 5844 5845 5846 5844 5845 5846 5843 5842 5840 5840 5840 5837 5837 5839 5838 5838 5840 5838 5834 5834 5835 5835 5834 5832 5833 5832 5832 5832 5831 5831
5853 5853 5853 5853 5853 5854 5854 5854 5855 5855 5856 5856 5856 5856 5856 5856 5856 5857 5856 5856 5856 5856 5856 5855 5855 5855 5855 5857 5859 5858 5857 5857 5855 5855 5854 5853 5853 5853 5853 5853 5853 5853 5852 5852 5851 5851 5849 5848 5848 5847 5845 5845 5847 5846 5844 5844 5842 5842 5840 5839 5842 5841 5840 5843 5839 5836 5836 5835 5835 5831 5830 5835 5836 5834 5835 5833 5830 5829 5830 5831 5830 5828 5828 5828 5827 5827 5826 5826
5849 5849 5849 5850 5850 5850 5850 5850 5851 5851 5852 5852 5852 5852 5851 5852 5852 5853 5853 5852 5852 5853 5852 5851 5851 5851 5851 5854 5856 5854 5853 5853 5852 5851 5850 5849 5849 5850 5850 5850 5850 5849 5849 5848 5848 5847 5845 5844 5843 5842 5842 5841 5842 5841 5840 5841 5838 5838 5835 5833 5836 5835 5836 5840 5835 5833 5833 5830 5831 5826 5822 5830 5833 5831 5831 5829 5826 5825 5825 5827 5826 5825 5824 5823 5822 5822 5821 5821
5846 5845 5846 5846 5846 5847 5847 5847 5847 5847 5848 5847 5847 5847 5847 5848 5848 5849 5848 5848 5848 5848 5848 5847 5847 5846 5846 5850 5853 5851 5850 5849 5848 5847 5846 5845 5846 5847 5847 5846 5846 5846 5846 5845 5844 5843 5842 5841 5838 5837 5837 5837 5837 5837 5836 5836 5835 5833 5831 5829 5830 5827 5830 5836 5832 5829 5829 5825 5826 5822 5816 5824 5829 5828 5826 5824 5822 5821 5820 5822 5822 5821 5821 5819 5818 5817 5816 5816
5842 5842 5842 5842 5842 5843 5843 5843 5843 5843 5843 5843 5843 5843 5842 5843 5843 5844 5844 5844 5844 5844 5843 5843 5843 5841 5841 5847 5849 5847 5846 5845 5844 5843 5842 5842 5843 5843 5843 5843 5842 5843 5842 5841 5840 5839 5838 5837 5834 5833 5832 5833 5833 5833 5832 5831 5831 5830 5826 5825 5825 5820 5823 5830 5829 5827 5824 5820 5820 5817 5812 5818 5825 5825 5823 5820 5818 5817 5816 5817 5817 5817 5817 5815 5814 5812 5811 5811
5838 5838 5838 5838 5839 5839 5839 5838 5839 5839 5839 5839 5839 5838 5838 5838 5838 5839 5839 5840 5839 5839 5839 5837 5838 5837 5836 5842 5845 5843 5842 5841 5840 5839 5838 5839 5839 5840 5840 5839 5839 5839 5838 5837 5837 5835 5834 5832 5830 5829 5828 5829 5830 5829 5826 5825 5828 5828 5821 5819 5820 5817 5817 5822 5826 5824 5820 5816 5814 5812 5809 5813 5820 5819 5818 5817 5815 5813 5811 5812 5812 5813 5813 5811 5810 5808 5807 5806
5834 5834 5834 5834 5834 5835 5834 5834 5834 5835 5835 5835 5835 5834 5834 5833 5834 5834 5834 5835 5834 5835 5834 5833 5834 5832 5831 5837 5839 5839 5839 5836 5835 5835 5835 5835 5835 5836 5836 5836 5836 5835 5834 5833 5833 5832 5830 5827 5824 5824 5824 5826 5828 5826 5821 5820 5823 5823 5817 5813 5814 5814 5813 5815 5820 5819 5816 5812 5808 5806 5803 5808 5814 5813 5812 5813 5811 5809 5807 5807 5808 5808 5808 5807 5806 5804 5803 5802
5829 5829 5829 5829 5830 5830 5830 5830 5829 5830 5830 5830 5830 5830 5829 5828 5828 5829 5829 5829 5829 5830 5829 5829 5828 5826 5828 5832 5832 5834 5835 5832 5832 5831 5831 5832 5832 5832 5832 5832 5832 5831 5830 5829 5829 5827 5824 5822 5819 5818 5821 5824 5826 5822 5816 5816 5817 5815 5813 5810 5808 5809 5809 5811 5814 5812 5809 5805 5802 5800 5798 5800 5805 5807 5808 5809 5807 5804 5803 5803 5803 5804 5803 5802 5801 5800 5799 5797
5824 5824 5824 5825 5825 5825 5825 5825 5824 5825 5825 5825 5825 5825 5824 5823 5823 5823 5823 5823 5824 5826 5824 5823 5823 5821 5823 5827 5827 5828 5829 5828 5828 5828 5828 5829 5828 5828 5828 5828 5827 5826 5825 5825 5824 5821 5819 5816 5812 5813 5819 5823 5822 5817 5811 5812 5811 5809 5808 5805 5803 5803 5803 5807 5810 5806 5802 5797 5795 5796 5792 5792 5797 5801 5803 5803 5802 5801 5800 5799 5798 5799 5799 5798 5797 5796 5795 5793
5819 5819 5819 5819 5819 5820 5820 5820 5819 5819 5819 5820 5819 5819 5819 5818 5818 5818 5817 5818 5819 5820 5819 5818 5818 5817 5818 5820 5821 5822 5823 5823 5823 5824 5825 5825 5824 5823 5823 5823 5822 5820 5821 5821 5818 5815 5814 5810 5806 5811 5818 5819 5816 5811 5808 5807 5806 5804 5802 5801 5800 5797 5797 5803 5805 5802 5799 5790 5787 5791 5787 5786 5791 5795 5797 5797 5797 5798 5798 5796 5795 5795 5794 5793 5792 5791 5790 5788
5813 5813 5814 5814 5814 5814 5814 5815 5814 5814 5814 5814 5814 5814 5813 5812 5812 5812 5811 5812 5813 5814 5814 5813 5811 5811 5814 5814 5814 5816 5817 5817 5819 5821 5821 5820 5819 5819 5819 5819 5815 5815 5816 5815 5811 5810 5808 5803 5804 5810 5814 5812 5809 5806 5805 5803 5801 5799 5797 5796 5795 5793 5794 5798 5799 5798 5795 5785 5781 5784 5780 5779 5785 5789 5791 5792 5792 5794 5795 5793 5792 5791 5790 5788 5788 5787 5786 5784
5808 5808 5808 5808 5808 5809 5809 5809 5808 5808 5809 5808 5808 5808 5808 5807 5806 5806 5805 5805 5808 5809 5808 5808 5806 5805 5807 5807 5809 5811 5810 5812 5815 5816 5816 5815 5815 5815 5815 5813 5810 5810 5810 5808 5807 5806 5800 5798 5804 5808 5806 5805 5803 5803 5801 5799 5796 5793 5793 5791 5788 5789 5790 5790 5793 5794 5789 5780 5776 5778 5773 5771 5778 5783 5786 5787 5787 5788 5789 5789 5789 5788 5786 5785 5784 5783 5782 5780
5802 5802 5803 5803 5803 5803 5803 5803 5803 5803 5803 5803 5803 5803 5802 5802 5801 5800 5798 5796 5800 5804 5803 5803 5802 5800 5800 5801 5803 5804 5805 5808 5810 5810 5810 5810 5811 5811 5808 5807 5806 5804 5803 5803 5804 5800 5793 5795 5801 5801 5799 5799 5799 5798 5797 5794 5792 5789 5789 5787 5783 5786 5786 5782 5785 5787 5782 5775 5772 5771 5765 5762 5770 5776 5780 5784 5782 5783 5784 5784 5785 5784 5782 5781 5780 5779 5777 5776
5796 5796 5797 5797 5797 5798 5798 5797 5797 5798 5797 5798 5797 5797 5797 5797 5796 5795 5793 5790 5790 5796 5799 5798 5796 5794 5796 5797 5797 5799 5801 5804 5804 5803 5805 5805 5805 5804 5802 5802 5799 5796 5798 5800 5799 5793 5788 5793 5795 5793 5792 5793 5793 5793 5791 5788 5787 5786 5785 5783 5780 5783 5782 5777 5778 5778 5773 5769 5769 5767 5756 5752 5763 5769 5773 5779 5778 5778 5780 5779 5780 5781 5778 5777 5777 5776 5773 5772
5790 5790 5791 5792 5792 5792 5793 5792 5792 5792 5792 5792 5791 5792 5791 5791 5791 5789 5788 5784 5781 5787 5793 5792 5790 5790 5793 5793 5793 5795 5795 5797 5798 5799 5800 5799 5799 5797 5796 5795 5791 5791 5794 5795 5792 5785 5784 5790 5791 5787 5786 5787 5787 5786 5786 5784 5783 5781 5780 5780 5780 5779 5776 5774 5773 5770 5765 5761 5764 5764 5750 5742 5753 5762 5765 5771 5773 5774 5775 5775 5776 5777 5774 5772 5771 5771 5770 5768
5783 5784 5785 5786 5786 5786 5787 5786 5787 5787 5786 5786 5786 5786 5785 5785 5785 5784 5783 5779 5774 5778 5783 5783 5784 5787 5789 5790 5790 5790 5789 5790 5793 5794 5793 5792 5792 5790 5788 5787 5786 5787 5788 5788 5784 5777 5778 5786 5786 5783 5782 5781 5779 5778 5780 5781 5778 5774 5773 5776 5777 5774 5772 5770 5769 5765 5760 5755 5755 5756 5748 5738 5741 5751 5758 5762 5765 5767 5770 5771 5772 5772 5770 5767 5765 5765 5765 5763
5777 5778 5779 5780 5780 5780 5781 5780 5781 5781 5781 5781 5780 5780 5780 5780 5779 5778 5779 5774 5768 5771 5773 5773 5778 5783 5785 5786 5786 5785 5784 5786 5787 5787 5786 5785 5785 5784 5782 5781 5782 5782 5782 5780 5775 5771 5776 5780 5778 5778 5778 5775 5773 5773 5776 5775 5770 5768 5769 5770 5769 5768 5767 5766 5764 5760 5756 5753 5748 5745 5744 5737 5732 5741 5751 5752 5754 5759 5763 5766 5766 5766 5765 5764 5761 5759 5758 5758
5770 5771 5772 5774 5775 5774 5774 5775 5774 5775 5775 5775 5775 5774 5774 5774 5774 5774 5774 5768 5762 5763 5766 5768 5772 5775 5777 5779 5780 5780 5780 5781 5780 5779 5780 5779 5778 5778 5776 5776 5776 5775 5775 5772 5768 5769 5772 5772 5770 5770 5769 5767 5769 5770 5770 5768 5764 5764 5764 5762 5761 5761 5761 5760 5758 5756 5753 5749 5744 5738 5740 5737 5728 5733 5742 5741 5742 5749 5755 5759 5759 5759 5759 5760 5758 5755 5752 5751
5764 5765 5766 5767 5768 5768 5768 5769 5768 5768 5769 5769 5769 5768 5768 5769 5768 5770 5770 5762 5755 5756 5761 5766 5766 5766 5769 5771 5772 5773 5773 5773 5773 5772 5773 5773 5772 5771 5770 5770 5769 5768 5768 5765 5763 5765 5765 5765 5764 5762 5760 5762 5764 5764 5762 5761 5759 5759 5759 5756 5756 5754 5753 5753 5751 5751 5748 5742 5738 5734 5737 5737 5728 5727 5734 5732 5734 5742 5747 5750 5751 5751 5753 5755 5755 5752 5749 5746
5757 5758 5759 5760 5762 5762 5762 5763 5762 5762 5763 5763 5762 5762 5762 5763 5763 5764 5761 5754 5751 5753 5758 5760 5759 5759 5761 5763 5763 5764 5764 5765 5766 5766 5766 5766 5766 5765 5764 5763 5762 5761 5761 5759 5758 5760 5761 5759 5757 5756 5756 5757 5757 5756 5755 5754 5753 5753 5753 5751 5749 5747 5746 5746 5743 5743 5741 5735 5734 5733 5734 5737 5728 5720 5723 5725 5729 5735 5739 5742 5743 5742 5744 5748 5751 5749 5746 5743
5751 5751 5752 5754 5755 5754 5756 5758 5756 5755 5755 5755 5756 5756 5756 5756 5757 5755 5751 5749 5751 5751 5753 5753 5752 5753 5754 5754 5755 5755 5755 5756 5757 5758 5758 5758 5759 5758 5757 5756 5755 5754 5753 5753 5753 5755 5755 5752 5751 5752 5752 5751 5750 5749 5749 5748 5748 5748 5747 5744 5742 5741 5739 5737 5735 5735 5732 5728 5731 5732 5732 5734 5725 5715 5716 5718 5721 5727 5730 5733 5734 5734 5734 5739 5745 5745 5742 5740
5745 5745 5746 5747 5748 5748 5749 5751 5750 5749 5749 5749 5749 5749 5748 5747 5748 5747 5746 5748 5746 5745 5748 5748 5745 5746 5747 5747 5748 5748 5747 5747 5748 5748 5750 5751 5752 5753 5752 5750 5750 5747 5746 5747 5747 5747 5746 5745 5745 5744 5744 5746 5745 5744 5743 5742 5743 5742 5740 5738 5735 5733 5730 5727 5727 5727 5726 5726 5728 5729 5727 5724 5716 5713 5715 5715 5717 5721 5722 5722 5725 5727 5724 5727 5736 5739 5736 5734
5737 5738 5739 5740 5741 5741 5742 5743 5744 5745 5744 5743 5741 5740 5739 5737 5739 5742 5742 5743 5741 5739 5743 5742 5739 5739 5739 5740 5741 5741 5740 5740 5740 5740 5740 5742 5743 5745 5745 5744 5743 5741 5739 5741 5740 5739 5738 5740 5740 5737 5738 5742 5739 5737 5737 5736 5737 5734 5732 5731 5729 5726 5721 5719 5722 5722 5721 5722 5724 5724 5720 5713 5707 5709 5711 5713 5716 5717 5716 5716 5718 5721 5716 5715 5725 5731 5729 5727
5731 5731 5732 5734 5735 5735 5735 5736 5738 5738 5737 5737 5735 5733 5731 5729 5734 5738 5735 5735 5736 5735 5736 5735 5734 5733 5732 5733 5734 5733 5734 5733 5733 5733 5731 5732 5732 5734 5737 5737 5736 5735 5733 5733 5733 5732 5730 5732 5736 5733 5732 5735 5732 5731 5731 5730 5729 5726 5726 5725 5721 5720 5716 5714 5718 5717 5714 5715 5717 5714 5710 5706 5704 5706 5707 5707 5709 5709 5709 5711 5713 5713 5710 5706 5714 5722 5722 5720
5724 5725 5725 5727 5728 5729 5729 5729 5730 5730 5729 5728 5726 5723 5723 5725 5731 5732 5728 5728 5728 5727 5729 5729 5728 5727 5726 5726 5726 5727 5727 5724 5724 5725 5723 5724 5724 5724 5727 5728 5728 5728 5726 5724 5724 5725 5721 5723 5730 5727 5724 5728 5726 5725 5725 5722 5720 5720 5719 5715 5713 5715 5715 5711 5711 5711 5707 5705 5707 5704 5699 5701 5703 5703 5703 5702 5701 5701 5703 5705 5706 5706 5704 5701 5706 5713 5715 5713
5717 5718 5719 5720 5721 5721 5721 5721 5722 5722 5721 5720 5715 5712 5717 5722 5725 5724 5721 5721 5720 5719 5720 5721 5721 5721 5719 5719 5720 5721 5720 5716 5716 5715 5714 5715 5716 5718 5720 5719 5719 5719 5718 5716 5715 5716 5712 5713 5721 5718 5715 5719 5718 5717 5718 5714 5712 5712 5709 5708 5709 5712 5710 5704 5701 5704 5703 5696 5697 5697 5692 5694 5698 5696 5697 5699 5699 5700 5699 5698 5698 5698 5697 5695 5698 5704 5708 5707
5709 5710 5712 5714 5714 5712 5712 5712 5714 5714 5712 5709 5703 5705 5713 5716 5716 5716 5715 5715 5713 5711 5711 5711 5714 5715 5712 5711 5713 5714 5712 5708 5708 5706 5706 5706 5707 5712 5713 5710 5711 5709 5709 5709 5706 5707 5704 5701 5708 5710 5706 5709 5710 5708 5708 5706 5703 5702 5702 5705 5706 5703 5701 5697 5692 5694 5695 5688 5688 5691 5687 5687 5692 5691 5691 5693 5695 5696 5694 5692 5692 5691 5691 5689 5689 5693 5699 5702
5701 5702 5704 5706 5705 5703 5703 5703 5703 5704 5702 5697 5694 5698 5705 5707 5708 5709 5708 5707 5705 5704 5703 5701 5704 5706 5705 5703 5705 5706 5702 5699 5699 5698 5697 5697 5699 5706 5706 5702 5702 5700 5701 5701 5696 5696 5696 5689 5694 5701 5700 5699 5701 5700 5698 5697 5695 5694 5697 5700 5698 5694 5692 5690 5684 5683 5685 5680 5677 5682 5682 5681 5685 5688 5688 5687 5688 5687 5685 5686 5685 5684 5684 5684 5683 5682 5686 5693
5692 5692 5694 5698 5696 5694 5695 5693 5692 5693 5689 5686 5687 5692 5697 5700 5700 5701 5700 5698 5698 5697 5696 5694 5695 5696 5696 5696 5696 5697 5695 5692 5691 5689 5689 5688 5690 5697 5699 5695 5694 5693 5693 5693 5686 5686 5687 5680 5679 5688 5692 5690 5693 5693 5690 5690 5689 5687 5688 5689 5688 5686 5683 5680 5676 5674 5675 5670 5667 5671 5674 5676 5682 5686 5685 5682 5682 5680 5678 5678 5679 5677 5677 5677 5676 5673 5672 5681
5682 5681 5685 5690 5686 5682 5685 5683 5681 5681 5678 5678 5683 5686 5689 5690 5691 5693 5692 5689 5689 5688 5686 5687 5688 5685 5686 5689 5689 5689 5688 5686 5684 5682 5681 5680 5682 5688 5690 5687 5686 5684 5682 5682 5679 5679 5678 5672 5667 5673 5679 5679 5681 5685 5685 5685 5683 5678 5677 5677 5678 5679 5675 5669 5666 5667 5668 5661 5658 5658 5659 5669 5682 5682 5679 5678 5676 5674 5672 5671 5672 5673 5671 5670 5669 5666 5661 5667
5671 5670 5676 5682 5674 5670 5675 5671 5668 5671 5669 5670 5675 5676 5677 5678 5681 5686 5684 5680 5679 5678 5677 5677 5677 5677 5677 5679 5681 5683 5680 5676 5676 5675 5673 5674 5677 5679 5680 5679 5677 5675 5673 5672 5671 5669 5666 5662 5659 5660 5663 5665 5669 5675 5676 5675 5674 5669 5667 5667 5670 5670 5666 5659 5653 5658 5662 5653 5648 5647 5641 5655 5679 5680 5674 5674 5672 5669 5668 5666 5666 5667 5666 5665 5664 5660 5654 5655
5661 5660 5666 5671 5663 5660 5663 5658 5657 5661 5659 5662 5667 5667 5666 5668 5672 5676 5675 5672 5669 5668 5668 5667 5667 5669 5668 5669 5672 5673 5670 5666 5667 5667 5665 5668 5671 5671 5673 5674 5671 5668 5666 5663 5661 5660 5657 5653 5649 5648 5651 5654 5658 5662 5663 5662 5662 5659 5655 5657 5661 5659 5657 5651 5644 5647 5651 5641 5639 5638 5624 5635 5669 5678 5670 5669 5667 5663 5661 5660 5660 5660 5660 5658 5656 5654 5650 5649
5651 5651 5654 5658 5654 5651 5649 5644 5646 5650 5650 5654 5658 5656 5656 5656 5659 5664 5666 5664 5661 5658 5658 5658 5659 5660 5660 5661 5661 5661 5661 5657 5656 5660 5659 5657 5662 5666 5667 5667 5665 5662 5658 5654 5652 5653 5651 5646 5640 5638 5641 5644 5647 5651 5652 5652 5651 5647 5645 5648 5650 5649 5648 5644 5637 5637 5635 5628 5630 5628 5610 5620 5657 5672 5664 5662 5660 5655 5654 5654 5654 5655 5653 5649 5646 5645 5644 5644
5640 5641 5643 5646 5645 5641 5635 5634 5638 5639 5640 5645 5645 5645 5646 5644 5647 5653 5656 5655 5652 5649 5648 5648 5650 5649 5650 5652 5650 5650 5652 5648 5645 5650 5650 5646 5652 5660 5660 5658 5659 5656 5652 5649 5647 5645 5644 5639 5632 5629 5630 5633 5636 5641 5643 5643 5642 5637 5637 5640 5639 5639 5639 5634 5630 5627 5619 5618 5624 5617 5602 5613 5645 5658 5653 5653 5652 5649 5648 5648 5647 5646 5643 5639 5637 5638 5637 5636
5628 5629 5632 5633 5632 5630 5626 5628 5631 5627 5628 5633 5633 5633 5635 5632 5636 5645 5646 5644 5642 5640 5637 5637 5639 5639 5639 5640 5639 5640 5643 5640 5636 5636 5637 5637 5642 5650 5652 5650 5650 5649 5646 5645 5642 5638 5634 5631 5627 5623 5620 5621 5625 5631 5636 5635 5630 5627 5628 5630 5630 5631 5630 5625 5622 5617 5608 5611 5615 5605 5597 5609 5630 5640 5641 5644 5645 5643 5644 5644 5640 5637 5632 5629 5629 5630 5630 5629
5616 5617 5621 5621 5618 5617 5618 5621 5622 5617 5617 5620 5619 5621 5625 5624 5627 5634 5633 5631 5633 5633 5628 5624 5626 5628 5627 5628 5629 5628 5630 5631 5626 5622 5623 5627 5631 5638 5642 5641 5639 5640 5641 5639 5635 5630 5622 5618 5621 5617 5611 5612 5615 5620 5628 5626 5619 5617 5620 5623 5623 5622 5621 5618 5612 5606 5606 5605 5600 5597 5601 5605 5613 5624 5630 5634 5637 5637 5638 5638 5633 5628 5624 5624 5624 5623 5622 5622
5606 5607 5610 5609 5604 5604 5608 5611 5612 5609 5609 5609 5605 5607 5615 5616 5617 5620 5621 5621 5624 5624 5617 5611 5614 5616 5617 5619 5619 5616 5617 5619 5615 5612 5612 5616 5621 5627 5629 5628 5626 5628 5632 5630 5625 5620 5610 5604 5611 5609 5602 5604 5607 5610 5618 5617 5609 5610 5612 5614 5616 5615 5613 5609 5600 5599 5604 5595 5584 5594 5603 5597 5599 5613 5619 5622 5627 5628 5629 5629 5623 5620 5619 5619 5619 5617 5615 5615
5596 5598 5599 5597 5593 5594 5598 5600 5601 5599 5598 5598 5594 5595 5602 5606 5606 5607 5609 5610 5611 5611 5606 5601 5604 5607 5608 5611 5608 5603 5604 5605 5603 5604 5605 5605 5609 5612 5613 5614 5616 5618 5621 5617 5612 5611 5599 5590 5599 5600 5593 5595 5598 5598 5604 5605 5600 5601 5601 5602 5606 5607 5604 5599 5593 5595 5597 5583 5575 5589 5594 5586 5590 5601 5607 5611 5616 5617 5617 5616 5614 5613 5614 5614 5612 5610 5610 5609
5585 5587 5588 5586 5583 5586 5590 5589 5588 5587 5587 5586 5584 5585 5590 5593 5594 5595 5597 5596 5596 5598 5597 5592 5594 5598 5598 5599 5596 5590 5592 5593 5591 5594 5596 5594 5594 5595 5596 5599 5606 5611 5609 5602 5600 5600 5589 5580 5586 5590 5582 5581 5586 5586 5589 5590 5587 5588 5589 5591 5594 5594 5593 5590 5586 5589 5588 5577 5573 5581 5579 5576 5583 5590 5594 5600 5603 5601 5600 5602 5605 5607 5607 5608 5606 5603 5603 5601
5573 5574 5577 5576 5574 5577 5580 5579 5577 5575 5576 5576 5575 5577 5580 5580 5581 5583 5584 5584 5582 5584 5586 5584 5584 5586 5585 5585 5583 5579 5582 5584 5581 5581 5584 5582 5581 5582 5581 5583 5591 5598 5596 5590 5588 5587 5580 5572 5576 5579 5569 5564 5572 5576 5574 5575 5573 5571 5574 5579 5581 5580 5580 5580 5579 5580 5577 5569 5570 5572 5564 5563 5576 5584 5584 5585 5586 5584 5584 5588 5593 5596 5598 5599 5596 5593 5594 5590
5563 5563 5564 5564 5564 5567 5570 5569 5566 5563 5564 5568 5568 5567 5568 5567 5568 5569 5570 5573 5574 5573 5574 5573 5571 5572 5572 5572 5572 5571 5571 5572 5569 5569 5572 5572 5571 5572 5571 5570 5575 5581 5581 5580 5578 5575 5571 5565 5566 5568 5556 5549 5561 5565 5561 5563 5561 5553 5557 5566 5571 5570 5569 5569 5570 5568 5564 5560 5560 5560 5552 5553 5568 5575 5570 5568 5570 5570 5571 5575 5578 5581 5585 5584 5580 5579 5580 5576
5552 5551 5552 5552 5552 5558 5560 5557 5555 5552 5554 5561 5560 5555 5554 5555 5557 5558 5556 5559 5564 5564 5563 5561 5558 5558 5559 5560 5560 5560 5560 5559 5558 5559 5560 5561 5561 5563 5563 5564 5566 5566 5567 5568 5565 5563 5562 5557 5557 5558 5545 5538 5551 5554 5550 5552 5543 5533 5544 5559 5563 5562 5559 5556 5556 5556 5556 5554 5547 5543 5543 5549 5557 5557 5552 5552 5556 5557 5559 5563 5565 5566 5567 5566 5564 5564 5564 5563